Location: Newark
(0.0000°N, 0.0000°E)
Time: 14:44:16
(UTC+00:00)

Hubble Space Telescope - Visible Passes

Search period start: 27 September 2020 00:00
Search period end: 07 October 2020 00:00
Orbit: 536 x 540 km, 28.5° (Epoch: 26 September)

Date Brightness Start Highest point End Pass type
(mag) Time Alt. Az. Time Alt. Az. Time Alt. Az.
03 Oct 3.1 18:35:06 10° SSE 18:36:08 11° SSE 18:37:09 10° SE visible
04 Oct 2.8 18:23:07 10° S 18:25:28 15° SSE 18:27:50 10° ESE visible
04 Oct 3.6 20:02:32 10° WSW 20:03:21 15° WSW 20:03:21 15° WSW visible
05 Oct 2.5 18:11:44 10° SSW 18:14:47 20° SSE 18:17:51 10° ESE visible
05 Oct 3.0 19:51:51 10° WSW 19:53:37 24° WSW 19:53:37 24° WSW visible
06 Oct 2.4 19:41:16 10° WSW 19:43:54 33° WNW 19:43:54 33° WNW visible
